Theta_e
315 315 315 314 311 306 303 305 306 306 305 307 310 311 311 310 310 311 310 310 313 315 315 315 315 316 316 315 314 313 311 312 312 309 309 309 308 307 307 306 306 306 305
315 315 315 314 310 305 303 305 306 306 305 306 309 310 311 310 310 310 311 311 312 315 315 315 315 315 314 314 313 312 312 312 313 312 309 309 308 307 307 307 307 306 305
314 314 314 313 309 305 303 305 306 306 306 305 307 309 310 311 311 311 311 311 312 313 315 315 315 315 315 314 313 313 312 313 313 313 311 310 309 308 308 308 307 306 306
314 314 314 312 309 305 303 304 306 306 306 305 306 308 309 311 310 312 312 311 312 313 313 315 315 315 314 314 313 314 313 312 312 312 311 311 310 309 308 308 307 307 307
314 314 314 312 308 304 303 304 306 306 306 305 306 306 308 310 311 312 312 312 312 313 313 313 314 315 314 314 314 314 313 313 312 312 311 311 310 310 310 308 307 308 308
314 314 314 311 307 304 303 303 305 306 306 306 306 306 306 308 311 311 312 312 312 313 313 314 314 315 315 314 315 315 314 314 313 311 311 311 311 311 310 309 308 307 308
313 314 313 311 307 305 304 303 304 306 306 306 306 306 306 307 311 311 311 312 312 312 312 314 314 314 314 314 314 313 313 313 313 313 313 312 312 312 312 309 309 310 309
313 313 313 311 307 305 304 303 303 304 306 306 306 306 306 306 308 310 310 311 311 311 312 313 314 314 314 314 314 313 314 313 313 312 312 311 312 312 311 310 310 309 308
313 313 312 310 307 305 305 304 303 303 304 305 306 306 307 307 307 309 310 310 311 311 310 311 311 312 312 312 313 313 313 313 313 311 311 311 310 309 308 309 309 308 307
312 312 312 310 307 306 305 305 304 303 303 303 304 305 306 307 307 307 308 309 310 309 309 309 309 310 311 311 311 311 311 311 312 311 310 310 310 309 309 307 309 308 307
311 311 311 311 308 306 305 304 304 303 302 302 303 303 304 306 306 307 307 308 308 309 309 309 310 309 311 311 311 311 311 311 311 311 310 310 310 310 310 309 309 308 308
310 310 310 310 307 305 305 304 304 303 303 302 302 302 302 303 305 306 307 308 308 308 309 309 309 310 310 311 311 311 311 310 310 310 310 310 310 310 309 309 309 309 309
309 309 310 309 307 305 305 304 303 303 303 303 302 302 302 302 303 305 306 306 307 307 307 308 309 310 311 311 311 310 311 311 310 310 310 310 310 310 309 309 309 308 307
308 309 308 308 306 305 304 304 304 304 303 303 302 302 301 301 302 303 305 307 307 307 307 307 307 309 309 309 309 311 311 310 310 310 309 310 310 309 309 309 308 308 307
308 308 307 307 306 305 305 305 304 304 304 303 303 302 302 301 302 304 305 304 305 306 306 306 306 307 308 310 310 311 310 310 310 309 309 309 308 308 307 308 307 307 307
307 307 306 306 305 305 305 304 303 302 302 301 301 301 301 301 304 304 305 305 305 305 306 306 306 308 310 310 310 310 310 310 310 309 309 308 307 306 306 306 306 306 307
306 306 306 305 305 304 304 303 302 301 300 300 300 300 300 304 304 304 304 304 305 306 306 306 307 310 310 309 310 309 310 310 309 309 309 308 306 305 305 305 305 304 305
305 306 306 304 304 303 302 302 302 301 299 299 298 300 302 302 303 303 304 304 305 305 306 306 307 308 308 308 308 308 308 307 308 308 308 307 306 305 305 306 305 304 304
304 304 303 302 302 302 302 301 301 300 299 300 299 300 301 301 301 302 303 305 305 305 305 306 307 307 307 306 307 306 306 306 306 306 306 305 305 305 304 303 303 302 301
303 302 302 302 302 301 301 300 300 299 299 300 299 300 300 301 301 301 301 302 303 303 304 304 304 304 304 304 304 304 304 304 304 304 304 304 304 304 303 303 302 301 300
302 302 302 301 301 301 300 299 299 300 300 299 299 298 299 299 301 300 299 299 299 300 301 301 302 301 301 301 300 300 301 301 301 301 301 302 302 301 301 301 301 300 299
302 302 301 301 300 299 298 298 299 299 298 297 296 296 297 297 297 297 297 297 297 296 296 297 296 297 297 297 297 297 297 298 297 298 298 298 298 298 298 298 298 298 297
301 301 300 299 299 299 297 295 294 293 292 292 292 292 292 292 293 293 293 294 294 294 294 294 295 294 294 294 293 293 293 293 293 294 295 296 296 296 296 296 296 296 295
300 299 299 297 294 293 292 292 291 290 290 290 290 290 290 289 289 289 289 289 289 289 289 289 289 289 289 289 289 289 289 289 289 289 290 290 291 292 292 292 291 291 291
297 294 292 292 291 292 291 290 289 289 289 290 290 289 289 289 289 289 289 289 289 289 289 289 289 289 289 289 288 288 288 289 289 288 288 288 288 288 287 286 287 287 288
291 293 296 291 291 290 290 290 290 290 290 290 289 289 288 288 288 287 287 287 287 287 287 287 287 287 287 287 287 287 287 287 288 288 288 287 287 287 287 287 286 285 285
Wind_Speed
32 33 31 27 24 21 19 18 18 17 16 16 13 10 8 8 7 7 11 14 15 15 17 17 19 23 25 26 24 20 23 33 36 31 27 23 20 17 16 12 11 9 9
32 34 31 27 25 23 20 19 19 17 16 17 15 12 9 9 8 7 12 15 17 18 19 21 25 26 25 24 19 13 17 27 29 34 29 26 21 17 13 9 8 8 6
33 34 32 29 27 23 21 20 19 18 17 18 17 14 11 9 9 10 11 15 17 18 20 20 20 22 24 23 18 12 15 26 26 23 31 26 22 19 17 15 12 9 5
33 34 33 30 27 24 22 21 20 19 18 18 17 16 13 10 11 12 11 14 16 17 17 20 22 21 21 21 18 12 13 19 29 29 28 28 26 23 20 18 15 12 11
34 35 33 30 27 25 23 22 21 20 19 18 18 18 16 13 12 15 13 13 15 16 17 18 19 23 23 21 18 19 17 17 29 30 29 28 28 27 26 21 16 14 13
35 35 33 31 29 27 25 24 22 21 20 19 19 17 16 15 13 15 15 13 14 15 14 18 18 19 18 19 17 15 13 13 21 30 33 31 28 28 27 24 22 20 15
35 35 35 34 32 30 28 26 24 23 21 20 19 18 17 16 15 15 17 16 13 13 14 14 16 19 19 18 16 14 12 13 13 19 23 30 32 28 25 26 24 22 20
36 36 36 36 35 33 30 29 26 24 23 21 20 18 17 17 17 15 18 18 17 15 14 14 14 15 16 16 16 17 16 16 16 16 20 28 32 32 29 25 23 24 19
39 38 38 38 37 35 33 30 28 26 25 23 21 20 19 19 19 18 16 20 20 19 18 17 17 17 16 17 17 17 16 17 19 19 19 22 23 26 30 28 27 23 25
41 40 38 37 37 36 33 31 29 27 24 22 22 21 20 19 19 19 19 18 20 20 18 18 17 18 19 19 19 18 18 16 16 16 20 22 20 20 20 23 26 26 23
37 38 37 38 37 36 33 31 29 27 24 24 23 22 21 20 20 20 21 21 20 20 20 18 15 14 17 18 18 18 15 13 15 17 17 21 20 19 18 20 26 25 22
36 36 37 37 37 36 34 31 30 28 27 26 25 24 23 21 21 22 21 21 22 22 20 17 16 14 14 16 16 16 17 16 17 18 20 22 22 20 19 19 20 20 26
36 36 37 38 37 36 34 33 32 30 29 28 28 26 24 22 22 22 20 20 21 22 21 20 18 18 17 17 15 16 18 17 16 18 21 20 26 23 21 20 19 23 24
38 38 38 38 38 36 35 34 33 33 32 30 29 26 24 22 21 20 19 19 19 19 21 21 21 20 19 18 17 19 20 18 18 18 19 20 22 24 26 24 21 21 25
39 39 40 40 40 38 36 34 34 30 28 27 27 26 24 22 20 17 16 16 15 16 18 18 19 19 18 18 20 18 17 20 19 18 18 20 21 22 25 27 28 24 25
42 42 43 43 41 39 37 35 30 25 25 25 22 21 21 19 18 14 14 14 14 17 18 17 16 17 14 15 17 15 15 17 14 18 18 20 20 21 23 25 26 27 26
43 44 44 43 41 40 39 38 38 32 28 27 25 23 20 19 18 16 15 14 16 17 17 15 16 16 16 15 11 10 12 15 15 18 14 14 17 19 20 22 23 24 25
42 42 43 43 42 41 40 39 36 35 34 30 24 23 23 21 19 17 16 15 15 16 15 13 12 10 12 12 10 7 4 2 3 7 11 13 13 15 18 21 21 22 22
42 42 42 42 42 42 41 36 34 32 32 30 29 26 25 22 21 20 19 17 17 16 16 15 13 13 12 11 9 8 6 5 5 5 5 5 10 12 14 14 14 15 16
43 42 44 44 44 41 37 37 34 31 29 27 27 25 25 24 25 23 20 19 17 16 15 15 13 11 10 9 8 10 10 9 8 8 9 10 12 12 12 11 12 13 15
46 46 47 47 43 38 38 36 34 31 28 27 24 24 21 22 24 25 25 22 19 19 18 16 14 13 13 12 10 10 10 11 12 12 11 10 10 11 10 11 12 14 14
49 49 46 43 42 39 38 35 32 29 28 27 26 24 21 21 21 22 22 21 20 19 18 18 17 18 16 17 17 15 13 14 14 12 13 12 12 13 14 14 14 13 13
47 46 45 44 40 40 38 33 30 29 28 26 24 23 23 22 21 20 19 18 17 16 15 15 15 14 14 14 13 13 13 12 12 12 14 15 16 16 17 17 18 17 15
44 46 46 44 44 41 37 35 33 29 28 25 24 23 22 21 19 17 15 14 13 12 11 10 9 10 10 10 9 9 10 12 14 15 16 17 18 18 18 18 18 18 19
50 48 45 42 43 38 36 34 33 31 29 26 25 24 23 21 19 17 15 13 12 10 8 8 7 6 5 5 5 6 7 9 10 11 12 14 16 18 19 19 19 19 19
48 44 38 41 38 37 37 37 34 31 30 28 26 24 21 19 17 15 14 12 10 9 7 6 6 5 4 3 3 3 4 6 7 8 10 12 13 14 16 17 18 18 18
Wind_Direction
213 207 202 199 200 201 198 192 188 186 188 190 188 186 183 182 193 187 183 180 170 163 156 158 161 164 169 177 176 177 173 166 156 155 157 160 161 165 161 159 156 145 140
213 205 201 199 201 201 197 193 190 188 188 192 192 193 190 190 189 189 184 181 177 168 165 168 178 176 186 182 188 203 193 181 170 165 168 168 172 171 170 171 173 173 160
208 203 202 201 203 201 199 195 191 190 191 192 195 196 198 196 181 173 172 182 180 177 176 175 182 187 193 198 199 201 200 195 199 197 176 179 181 182 189 191 190 185 167
202 202 203 203 203 202 200 196 194 192 193 193 193 198 200 201 186 177 173 177 181 185 186 185 188 200 205 206 207 195 199 208 202 194 193 188 193 197 202 206 198 196 205
201 202 204 205 204 202 201 197 195 194 193 194 196 198 199 201 194 183 179 185 189 187 194 193 194 202 208 216 222 229 234 222 212 208 208 207 204 206 212 208 210 218 218
202 203 204 204 204 202 202 198 197 194 195 195 197 200 200 200 196 188 187 187 193 196 193 199 199 202 203 212 222 227 238 250 231 220 217 218 224 223 220 216 217 218 226
205 206 205 204 203 203 201 199 198 197 197 198 200 201 200 202 201 202 197 195 196 198 199 199 204 205 206 211 204 213 226 229 231 254 242 239 240 238 236 229 226 234 237
209 208 207 206 204 204 202 200 199 198 199 200 202 202 203 204 206 209 204 200 202 202 200 200 200 204 206 214 222 226 225 228 222 228 243 254 251 249 240 237 241 238 239
214 211 209 208 206 205 204 202 200 200 200 201 202 205 206 207 209 211 213 206 208 210 211 209 209 216 222 228 233 237 238 242 239 240 239 245 251 258 252 242 242 243 242
217 214 212 210 209 209 207 204 202 203 204 202 204 205 210 213 212 213 217 215 213 220 221 221 227 225 225 232 236 243 248 251 249 245 255 249 239 250 250 246 245 244 253
218 216 213 211 210 210 209 207 205 204 202 206 208 208 210 213 216 216 218 220 221 219 225 225 231 238 228 232 237 241 246 256 258 262 244 248 248 247 247 238 237 245 254
217 214 213 211 209 209 209 206 206 204 207 208 208 209 211 214 218 221 222 224 223 220 221 224 225 231 231 233 235 244 246 249 245 249 241 251 260 245 248 241 239 245 251
214 212 209 208 208 208 207 207 206 206 209 210 212 211 212 211 217 222 223 225 226 223 219 222 227 228 232 235 239 248 249 245 252 247 245 259 245 256 252 246 253 250 254
214 208 206 204 204 205 204 207 210 209 208 211 213 213 213 211 214 218 219 218 216 217 214 219 225 232 236 242 246 251 251 249 255 255 254 255 247 248 261 247 249 263 262
211 208 205 203 201 201 204 206 210 215 218 215 214 214 214 212 209 208 214 219 215 214 216 219 223 231 235 247 244 244 257 254 247 251 254 260 257 259 258 253 256 261 265
208 206 205 201 199 200 201 199 201 209 213 211 213 215 212 201 195 196 202 207 213 207 206 213 218 229 238 245 242 245 254 249 253 255 252 261 258 255 256 258 258 259 262
210 205 202 201 198 197 197 197 191 192 200 203 201 202 197 194 186 194 199 206 196 197 199 210 217 228 232 243 246 250 257 248 242 260 254 269 259 254 254 257 261 263 264
207 206 202 198 196 195 195 196 197 192 188 188 190 189 185 186 191 193 196 194 195 197 204 213 223 230 235 223 214 207 198 178 251 246 258 265 262 256 257 260 265 267 268
201 201 199 197 196 195 194 192 194 191 190 186 185 185 189 190 187 193 198 198 200 198 198 199 199 206 209 214 215 224 236 246 243 241 245 280 293 285 271 265 266 268 270
195 195 195 194 194 192 192 190 185 186 188 190 192 196 197 193 188 191 197 198 198 198 199 204 204 204 210 217 227 241 248 247 255 256 264 272 275 269 273 279 280 278 280
191 190 192 190 186 190 190 185 182 183 187 188 191 189 189 190 188 195 201 200 205 208 212 215 222 230 236 243 249 257 261 266 272 276 278 277 274 277 275 278 283 286 288
189 186 183 185 183 179 185 183 181 181 183 185 178 176 180 180 183 189 195 200 203 208 210 211 221 226 231 242 248 254 256 257 259 263 265 268 274 274 279 285 285 282 289
183 180 179 175 173 177 177 177 178 182 182 181 182 182 180 182 182 183 185 189 194 198 203 208 215 221 223 232 236 234 238 243 246 248 255 260 264 267 271 274 276 280 284
181 176 170 170 174 174 175 178 179 175 174 175 173 172 173 174 174 175 177 182 185 189 191 196 206 218 230 239 246 252 256 257 256 256 258 255 253 255 258 263 267 272 277
173 170 170 171 174 175 174 172 171 171 168 165 164 164 163 165 166 166 169 171 171 173 176 182 189 201 217 230 245 255 266 275 281 279 278 279 278 272 264 261 262 264 266
171 168 171 178 172 173 171 167 164 163 162 160 160 160 161 160 159 160 162 160 158 158 160 162 162 169 180 202 228 258 274 283 287 287 287 288 292 294 294 283 275 271 270